When you browse on this site, cookies collect data to enhance your experience and personalize the content and advertising you see.
Visit our Privacy Policy to learn more. By continuing to use the site, you agree to this use of cookies and data.
  • In Hungary
  • List of Countries
  • For 7 days
  • Water Temperature
  • Satellite Maps
  • Weather Map
  • News
  • Weather Widgets
  • user-avatar
    Login

    Hourly Weather Vikentiivka

    Today, 19 July, Friday

    Time Temperature Precipitation Wind Pressure Humidity
    00:00 +14°C° 0 mm 2 mps 737 mmHg 93%
    01:00 +14°C° 0 mm 2 mps 737 mmHg 93%
    02:00 +13°C° 0 mm 2 mps 737 mmHg 94%
    03:00 +13°C° 0 mm 2 mps 737 mmHg 94%
    04:00 +13°C° 0 mm 2 mps 737 mmHg 94%
    05:00 +13°C° 0 mm 2 mps 737 mmHg 94%
    06:00 +15°C° 0 mm 2 mps 738 mmHg 87%
    07:00 +17°C° 0 mm 3 mps 738 mmHg 81%
    08:00 +19°C° 0 mm 3 mps 739 mmHg 75%
    09:00 +20°C° 0 mm 3 mps 739 mmHg 69%
    10:00 +21°C° 0 mm 3 mps 739 mmHg 63%
    11:00 +24°C° 0 mm 3 mps 739 mmHg 57%
    12:00 +24°C° 0 mm 3 mps 739 mmHg 55%
    13:00 +25°C° 0 mm 2 mps 739 mmHg 53%
    14:00 +25°C° 0 mm 2 mps 739 mmHg 51%
    15:00 +25°C° 0 mm 2 mps 739 mmHg 54%
    16:00 +25°C° 0 mm 2 mps 739 mmHg 56%
    17:00 +25°C° 0 mm 2 mps 739 mmHg 59%
    18:00 +23°C° 0.1 mm 2 mps 739 mmHg 64%
    19:00 +20°C° 0.1 mm 2 mps 739 mmHg 70%
    20:00 +19°C° 0.1 mm 2 mps 739 mmHg 76%
    21:00 +19°C° 0 mm 1 mps 739 mmHg 78%
    22:00 +18°C° 0 mm 1 mps 739 mmHg 80%
    23:00 +15°C° 0 mm 0 mps 739 mmHg 83%

    Tomorrow, 20 July, Saturday

    Time Temperature Precipitation Wind Pressure Humidity
    00:00 +16°C° 0 mm 1 mps 739 mmHg 83%
    01:00 +16°C° 0 mm 1 mps 739 mmHg 84%
    02:00 +16°C° 0 mm 1 mps 739 mmHg 85%
    03:00 +16°C° 0 mm 1 mps 739 mmHg 85%
    04:00 +16°C° 0 mm 1 mps 740 mmHg 85%
    05:00 +15°C° 0 mm 0 mps 740 mmHg 85%
    06:00 +16°C° 0.2 mm 0 mps 740 mmHg 81%
    07:00 +18°C° 0.2 mm 0 mps 740 mmHg 77%
    08:00 +19°C° 0.2 mm 0 mps 740 mmHg 73%
    09:00 +23°C° 0.9 mm 1 mps 741 mmHg 70%
    10:00 +24°C° 0.9 mm 1 mps 741 mmHg 66%
    11:00 +25°C° 0.9 mm 1 mps 741 mmHg 62%
    12:00 +26°C° 1.1 mm 1 mps 741 mmHg 62%
    13:00 +26°C° 1.1 mm 2 mps 741 mmHg 61%
    14:00 +26°C° 1.1 mm 2 mps 741 mmHg 60%
    15:00 +26°C° 0.4 mm 2 mps 741 mmHg 61%
    16:00 +26°C° 0.4 mm 2 mps 741 mmHg 63%
    17:00 +26°C° 0.4 mm 2 mps 741 mmHg 64%
    18:00 +24°C° 0 mm 2 mps 741 mmHg 68%
    19:00 +21°C° 0 mm 2 mps 741 mmHg 73%
    20:00 +20°C° 0 mm 2 mps 741 mmHg 77%
    21:00 +19°C° 0 mm 2 mps 741 mmHg 78%
    22:00 +18°C° 0 mm 2 mps 741 mmHg 79%
    23:00 +17°C° 0 mm 2 mps 741 mmHg 79%

    Day after tomorrow, 21 July, Sunday

    Time Temperature Precipitation Wind Pressure Humidity
    00:00 +18°C° 0 mm 1 mps 741 mmHg 81%
    01:00 +18°C° 0 mm 1 mps 741 mmHg 82%
    02:00 +16°C° 0 mm 1 mps 741 mmHg 83%
    03:00 +16°C° 0 mm 1 mps 741 mmHg 83%
    04:00 +16°C° 0 mm 1 mps 741 mmHg 84%
    05:00 +16°C° 0 mm 1 mps 741 mmHg 84%
    06:00 +19°C° 0 mm 1 mps 741 mmHg 79%
    07:00 +21°C° 0 mm 1 mps 742 mmHg 74%
    08:00 +23°C° 0 mm 1 mps 742 mmHg 69%
    09:00 +24°C° 0 mm 1 mps 742 mmHg 65%
    10:00 +25°C° 0 mm 1 mps 742 mmHg 61%
    11:00 +25°C° 0 mm 0 mps 742 mmHg 57%
    12:00 +25°C° 0.1 mm 0 mps 742 mmHg 56%
    13:00 +25°C° 0.1 mm 0 mps 742 mmHg 55%
    14:00 +28°C° 0.1 mm 1 mps 741 mmHg 54%
    15:00 +28°C° 0.3 mm 1 mps 741 mmHg 56%
    16:00 +25°C° 0.3 mm 0 mps 741 mmHg 58%
    17:00 +25°C° 0.3 mm 0 mps 741 mmHg 60%
    18:00 +26°C° 0.2 mm 1 mps 741 mmHg 65%
    19:00 +24°C° 0.2 mm 1 mps 741 mmHg 70%
    20:00 +23°C° 0.2 mm 1 mps 740 mmHg 75%
    21:00 +21°C° 0.1 mm 2 mps 740 mmHg 77%
    22:00 +20°C° 0.1 mm 2 mps 740 mmHg 79%
    23:00 +20°C° 0.1 mm 2 mps 741 mmHg 81%

    22 July, Monday

    Time Temperature Precipitation Wind Pressure Humidity
    00:00 +19°C° 0.1 mm 2 mps 740 mmHg 83%
    01:00 +19°C° 0.1 mm 2 mps 740 mmHg 85%
    02:00 +19°C° 0.1 mm 3 mps 740 mmHg 86%
    03:00 +18°C° 0.2 mm 3 mps 740 mmHg 88%
    04:00 +18°C° 0.2 mm 3 mps 739 mmHg 89%
    05:00 +18°C° 0.2 mm 3 mps 739 mmHg 90%
    06:00 +19°C° 0.3 mm 3 mps 739 mmHg 88%
    07:00 +21°C° 0.3 mm 3 mps 739 mmHg 86%
    08:00 +22°C° 0.3 mm 3 mps 740 mmHg 84%
    09:00 +25°C° 0 mm 3 mps 740 mmHg 78%
    10:00 +26°C° 0 mm 4 mps 740 mmHg 71%
    11:00 +27°C° 0 mm 4 mps 740 mmHg 65%
    12:00 +27°C° 0.6 mm 4 mps 739 mmHg 64%
    13:00 +28°C° 0.6 mm 4 mps 739 mmHg 62%
    14:00 +28°C° 0.6 mm 5 mps 739 mmHg 61%
    15:00 +27°C° 0.3 mm 5 mps 739 mmHg 66%
    16:00 +26°C° 0.3 mm 5 mps 739 mmHg 70%
    17:00 +25°C° 0.3 mm 5 mps 739 mmHg 75%
    18:00 +23°C° 0.3 mm 4 mps 739 mmHg 79%
    19:00 +22°C° 0.3 mm 4 mps 739 mmHg 83%
    20:00 +21°C° 0.3 mm 3 mps 739 mmHg 88%
    21:00 +20°C° 0 mm 3 mps 739 mmHg 88%
    22:00 +19°C° 0 mm 3 mps 739 mmHg 89%
    23:00 +19°C° 0 mm 3 mps 739 mmHg 90%

    23 July, Tuesday

    Time Temperature Precipitation Wind Pressure Humidity
    00:00 +18°C° 0 mm 3 mps 738 mmHg 91%
    01:00 +18°C° 0 mm 3 mps 738 mmHg 92%
    02:00 +17°C° 0 mm 3 mps 738 mmHg 93%
    03:00 +17°C° 0 mm 3 mps 738 mmHg 93%
    04:00 +17°C° 0 mm 3 mps 738 mmHg 93%
    05:00 +17°C° 0 mm 3 mps 738 mmHg 93%
    06:00 +18°C° 0.1 mm 3 mps 738 mmHg 90%
    07:00 +19°C° 0.1 mm 4 mps 738 mmHg 86%
    08:00 +20°C° 0.1 mm 4 mps 738 mmHg 82%
    09:00 +21°C° 0.3 mm 5 mps 738 mmHg 77%
    10:00 +22°C° 0.3 mm 5 mps 738 mmHg 72%
    11:00 +23°C° 0.3 mm 5 mps 738 mmHg 67%
    12:00 +25°C° 0.2 mm 5 mps 737 mmHg 66%
    13:00 +24°C° 0.2 mm 6 mps 737 mmHg 64%
    14:00 +24°C° 0.2 mm 6 mps 737 mmHg 63%
    15:00 +24°C° 0.3 mm 6 mps 737 mmHg 65%
    16:00 +23°C° 0.3 mm 6 mps 737 mmHg 68%
    17:00 +22°C° 0.3 mm 6 mps 737 mmHg 71%
    18:00 +21°C° 0.1 mm 5 mps 737 mmHg 76%
    19:00 +20°C° 0.1 mm 4 mps 737 mmHg 81%
    20:00 +19°C° 0.1 mm 3 mps 736 mmHg 87%
    21:00 +18°C° 0 mm 3 mps 736 mmHg 89%
    22:00 +17°C° 0 mm 4 mps 736 mmHg 91%
    23:00 +17°C° 0 mm 4 mps 736 mmHg 93%

    24 July, Wednesday

    Time Temperature Precipitation Wind Pressure Humidity
    00:00 +15°C° 0 mm 4 mps 736 mmHg 94%
    01:00 +15°C° 0 mm 4 mps 736 mmHg 95%
    02:00 +15°C° 0 mm 4 mps 736 mmHg 96%
    03:00 +15°C° 0 mm 4 mps 736 mmHg 96%
    04:00 +14°C° 0 mm 4 mps 736 mmHg 95%
    05:00 +14°C° 0 mm 4 mps 735 mmHg 94%
    06:00 +15°C° 0 mm 5 mps 736 mmHg 89%
    07:00 +17°C° 0 mm 5 mps 736 mmHg 83%
    08:00 +19°C° 0 mm 6 mps 736 mmHg 78%
    09:00 +20°C° 0 mm 6 mps 736 mmHg 72%
    10:00 +21°C° 0 mm 6 mps 736 mmHg 67%
    11:00 +23°C° 0 mm 6 mps 736 mmHg 61%
    12:00 +23°C° 0.1 mm 6 mps 736 mmHg 60%
    13:00 +24°C° 0.1 mm 6 mps 736 mmHg 58%
    14:00 +24°C° 0.1 mm 6 mps 735 mmHg 57%
    15:00 +25°C° 0.1 mm 5 mps 735 mmHg 59%
    16:00 +25°C° 0.1 mm 5 mps 735 mmHg 61%
    17:00 +23°C° 0.1 mm 5 mps 735 mmHg 64%
    18:00 +21°C° 0.3 mm 4 mps 735 mmHg 71%
    19:00 +20°C° 0.3 mm 4 mps 735 mmHg 77%
    20:00 +18°C° 0.3 mm 3 mps 735 mmHg 84%
    21:00 +17°C° 0 mm 3 mps 735 mmHg 84%
    22:00 +17°C° 0 mm 3 mps 735 mmHg 84%
    23:00 +16°C° 0 mm 3 mps 735 mmHg 85%
    Show more